Regional Weather Roundup
Issued by NWS

Home | Current Version | Previous Version | Text Only | Print | Product List | Glossary On
Versions: 1 2 3 4 5 6 7 8 9 10 11 12 13 14 15 16 17 18 19 20 21 22 23 24 25 26 27 28 29 30 31 32 33 34 35 36 37 38 39 40 41 42 43 44 45 46 47 48 49 50
000
ASUS43 KDTX 281710
RWRMI
MICHIGAN HOURLY REGIONAL WEATHER ROUNDUP
NATIONAL WEATHER SERVICE DETROIT/PONTIAC MI
100 PM EDT SAT MAY 28 2016

NOTE: "FAIR" INDICATES FEW OR NO CLOUDS BELOW 12,000 FEET WITH NO
SIGNIFICANT WEATHER AND/OR OBSTRUCTION TO VISIBILITY.

MIZ047>049-052>055-059>063-066>070-074>076-081>083-281800-
SOUTHEAST LOWER MICHIGAN

CITY           SKY/WX    TMP DP  RH WIND       PRES   REMARKS
ADRIAN         MOSUNNY   85  63  47 S20       30.05F
ALMA           CLOUDY    78  67  68 S16       30.00S
ANN ARBOR      SUNNY     84  64  50 SW14G21   30.04S
BAD AXE        CLOUDY    84  67  56 SW10G21   30.01F
CARO           CLOUDY    81  65  58 S10G16    30.01S
DETROIT CITY   SUNNY     84  67  56 S9        30.04F
DETROIT        CLOUDY    84  64  50 S10       30.04F
FLINT          CLOUDY    81  63  54 S10G23    30.02F
GROSSE ILE     SUNNY     77  68  73 SE13      30.04F
HILLSDALE      CLOUDY    79  61  53 SW9G16    30.06R
HOWELL         CLOUDY    76  65  68 S10       30.04S

CITY           SKY/WX    TMP DP  RH WIND       PRES   REMARKS
JACKSON        CLOUDY    78  65  63 S12       30.04S
LAMBERTVILLE   SUNNY     87  63  45 SW10G16   30.05F
LANSING        CLOUDY    78  66  66 S15       30.01F
LAPEER         LGT RAIN  76  66  72 S7G28     30.04R
MASON          MOSUNNY   76  65  68 S9        30.03S
MONROE         MOSUNNY   86  67  54 S15G22    30.04S
MT. CLEMENS    MOSUNNY   79  69  71 SE14      30.04F
PONTIAC        PTSUNNY   85  63  47 S9        30.03F
PORT HOPE        N/A     83  69  62 VRB7      29.99F
PORT HURON     MOSUNNY   81  68  65 S14G22    30.06S
TRI CITIES     CLOUDY    81  66  60 S10       30.00F
MIDLAND        FAIR      80  64  58 S15G22    29.99S
TROY           MOSUNNY   87  64  45 SW10G18   30.05F
SAGINAW HB     CLOUDY    81  63  54 S18       30.00F
$$
MIZ043>046-050>051-056>058-064>065-071>073-077>080-281800-
SOUTHWEST LOWER MICHIGAN

CITY           SKY/WX    TMP DP  RH WIND       PRES   REMARKS
BENTON HARBOR  CLOUDY    78  65  63 S16G29    29.97R
BIG RAPIDS     CLOUDY    76  67  73 SW10G16   29.96S
COLDWATER      CLOUDY    78  65  64 S9G21     30.03S
FREMONT        PTSUNNY   77  67  71 S15G28    29.95S
HOLLAND        CLOUDY    80  66  62 S15       29.97R
GRAND RAPIDS   CLOUDY    79  65  62 S15G24    29.99R
IONIA          FAIR      78  64  61 S14G20    29.99S
KALAMAZOO      CLOUDY    78  63  59 S16       30.00S
LUDINGTON      CLOUDY    75  65  72 S21G30    29.93R
MARSHALL       CLOUDY    78  66  65 S12G17    30.02S
MOUNT PLEASANT CLOUDY    78  65  63 S10G17    29.98S
MUSKEGON       CLOUDY    77  63  61 S16G25    29.95R
SOUTH HAVEN    CLOUDY    79  65  62 S13G20    29.97S
$$
MIZ016>042-281800-
NORTHERN LOWER MICHIGAN

CITY           SKY/WX    TMP DP  RH WIND       PRES   REMARKS
ALPENA         CLOUDY    75  65  70 SE6       29.95F
BEAVER ISLAND  PTSUNNY   76  65  68 S9G18     29.90S
BELLAIRE       CLOUDY    78  64  60 S14G23    29.91S
CADILLAC       CLOUDY    76  65  67 S14G24    29.95S
CHARLEVOIX     CLOUDY    80  65  61 S14G24    29.92F
FRANKFORT      CLOUDY    73  65  75 SW16G23   29.91R
GAYLORD        CLOUDY    77  64  64 S16G23    29.95S
GRAYLING       CLOUDY    79  65  62 S14G22    29.97R
HARBOR SPRINGS CLOUDY    80  65  62 S10G16    29.91S
HOUGHTON LAKE  CLOUDY    77  63  61 S16G22    29.97S
MANISTEE       CLOUDY    75  64  69 S10G20    29.92R
OSCODA         CLOUDY    83  63  49 S14G30    29.97F
PELLSTON       CLOUDY    80  64  58 S10G22    29.91F
ROGERS CITY    CLOUDY    78  68  71 SE8       29.95F
TRAVERSE CITY  CLOUDY    78  65  63 VRB6G21   29.89R
$$
MIZ007>008-015-281800-
EASTERN UPPER MICHIGAN

CITY           SKY/WX    TMP DP  RH WIND       PRES   REMARKS
KINROSS          N/A     73  66  78 SE14      29.92F
MACKINAC ISLAN CLOUDY    62  60  93 CALM      29.91F
NEWBERRY       LGT RAIN  68  66  93 S9        29.89S
S. S. MARIE    PTSUNNY   72  64  76 SE10      29.92F
MUNISING         N/A     70  65  84 S8        29.83F
$$
MIZ004>006-011>014-085-281800-
CENTRAL UPPER MICHIGAN

CITY           SKY/WX    TMP DP  RH WIND       PRES   REMARKS
MANISTIQUE     CLOUDY    65  63  90 SE9       29.87F
ESCANABA       MOSUNNY   64  59  82 S13       29.84S
MENOMINEE      CLOUDY    70  64  83 S9        29.83R
SAWYER-GWINN   CLOUDY    66  63  88 S13       29.84S
$$
MIZ001>003-009>011-084-281800-
WESTERN UPPER MICHIGAN

CITY           SKY/WX    TMP DP  RH WIND       PRES   REMARKS
IRON MOUNTAIN  CLOUDY    69  66  90 SE8       29.79S FOG
HOUGHTON       CLOUDY    65  62  90 E6        29.79F
COPPER HARBOR    N/A     65  63  93 VRB5      29.78F
IRONWOOD       CLOUDY    64  64 100 NW3       29.75S
$$

ABBREVIATIONS USED IN REMARKS
   TC - TEMPERATURE IN CELSIUS
  WCI - WIND CHILL INDEX
   HX - HEAT INDEX
  VSB - VISIBILITY





USA.gov is the U.S. government's official web portal to all federal, state and local government web resources and services.